Weather History for Moab, UT

Change the Weather History Date:

Friday, January 24, 2014

  Actual Average Record
Temperature  
Mean Temperature 27 °F 29 °F  
Max Temperature 38 °F 40 °F 67 °F (1950)
Min Temperature 16 °F 18 °F -14 °F (1930)
Degree Days  
Heating Degree Days 38 36  
Month to date heating degree days 987 930  
Since 1 July heating degree days 3806 3327  
Cooling Degree Days 0 0  
Month to date cooling degree days 0 0  
Year to date cooling degree days 0 0  
Moisture  
Dew Point 18 °F    
Average Humidity 65    
Maximum Humidity 84    
Minimum Humidity 45    
Precipitation  
Precipitation 0.00 in 0.02 in 0.45 in (1950)
Month to date precipitation T 0.52  
Year to date precipitation T 0.52  
Sea Level Pressure  
Sea Level Pressure 30.60 in    
Wind  
Wind Speed 4 mph (WNW)    
Max Wind Speed 12 mph    
Max Gust Speed 12 mph    
Visibility 10 miles    
Events      
T = Trace of Precipitation, MM = Missing Value Source: NWS Daily Summary

Daily Weather History Graph

Daily Weather History Graph

Search for Another Location

Airport:

Trip Planner

Search our weather history database for the weather conditions in past years. The results will help you decide how hot, cold, wet, or windy it might be!

Date:

Astronomy

Jan. 24, 2014 Rise Set
Actual Time 7:31 AM MST 5:31 PM MST
Civil Twilight 7:02 AM MST 6:00 PM MST
Nautical Twilight 6:30 AM MST 6:32 PM MST
Astronomical Twilight 5:58 AM MST 7:04 PM MST
Moon 1:02 AM MST (1/24) 11:51 AM MST (1/24)
Length of Visible Light 10h 57m
Length of Day
10h 00m
Last Quarter, 44% of the Moon is Illuminated
Jan 24
Last Quarter
Jan 30
New
Feb 6
First Quarter
Feb 14
Full
Feb 22
Last Quarter

Hourly Weather History & Observations

Time (MST) Temp. Windchill Dew Point Humidity Pressure Visibility Wind Dir Wind Speed Gust Speed Precip Events Conditions
12:53 AM 21.9 °F 17.2 °F 18.0 °F 85% 30.57 in 10.0 mi WSW 3.5 mph - N/A   Clear
1:53 AM 21.9 °F - 17.1 °F 82% 30.57 in 10.0 mi Calm Calm - N/A   Clear
2:53 AM 21.0 °F 14.6 °F 15.1 °F 78% 30.59 in 10.0 mi WNW 4.6 mph - N/A   Clear
3:53 AM 19.0 °F 13.9 °F 16.0 °F 88% 30.61 in 10.0 mi ENE 3.5 mph - N/A   Clear
4:53 AM 19.0 °F - 14.0 °F 81% 30.62 in 10.0 mi Calm Calm - N/A   Clear
5:53 AM 19.0 °F - 14.0 °F 81% 30.64 in 10.0 mi Calm Calm - N/A   Clear
6:53 AM 17.1 °F - 12.9 °F 84% 30.66 in 10.0 mi Calm Calm - N/A   Clear
7:53 AM 18.0 °F - 12.0 °F 78% 30.68 in 10.0 mi Calm Calm - N/A   Clear
8:53 AM 24.1 °F 19.7 °F 14.0 °F 65% 30.68 in 10.0 mi South 3.5 mph - N/A   Clear
9:53 AM 28.9 °F 23.9 °F 14.0 °F 54% 30.67 in 10.0 mi South 4.6 mph - N/A   Clear
10:53 AM 32.0 °F 27.5 °F 14.0 °F 48% 30.67 in 10.0 mi SE 4.6 mph - N/A   Clear
11:53 AM 32.0 °F 24.8 °F 19.9 °F 61% 30.66 in 10.0 mi NW 8.1 mph - N/A   Clear
12:53 PM 33.1 °F 26.1 °F 21.0 °F 61% 30.62 in 10.0 mi NW 8.1 mph - N/A   Clear
1:53 PM 35.1 °F 30.1 °F 19.9 °F 54% 30.58 in 10.0 mi NW 5.8 mph - N/A   Clear
2:53 PM 37.0 °F 33.3 °F 19.0 °F 48% 30.56 in 10.0 mi NW 4.6 mph - N/A   Clear
3:53 PM 36.0 °F 29.6 °F 23.0 °F 59% 30.55 in 10.0 mi NW 8.1 mph - N/A   Clear
4:53 PM 32.0 °F 23.6 °F 24.1 °F 73% 30.56 in 10.0 mi NW 10.4 mph - N/A   Clear
5:53 PM 30.0 °F 21.1 °F 21.0 °F 69% 30.57 in 10.0 mi NNW 10.4 mph - N/A   Clear
6:53 PM 30.0 °F - 21.0 °F 69% 30.59 in 10.0 mi Calm Calm - N/A   Clear
7:53 PM 27.0 °F - 21.9 °F 81% 30.60 in 10.0 mi Calm Calm - N/A   Clear
8:53 PM 25.0 °F - 19.9 °F 81% 30.58 in 10.0 mi Calm Calm - N/A   Clear
9:53 PM 25.0 °F - 19.9 °F 81% 30.56 in 10.0 mi Calm Calm - N/A   Clear
10:53 PM 25.0 °F 20.7 °F 19.9 °F 81% 30.55 in 10.0 mi WSW 3.5 mph - N/A   Clear
11:53 PM 21.9 °F - 19.0 °F 89% 30.56 in 10.0 mi Calm Calm - N/A   Clear